GFSSE_sfc_dewp_336.txt.gz
Dewpoint
68 72 76 75 75 75 75 75 75 75 76 76 77 76 76 77 77 77 76 76 76 76 75 75 75 75 75 75 75 73 75 75 74 74 73 74 74 73 74 74 74 72 74
70 74 76 76 75 75 75 75 76 76 76 76 77 77 77 76 76 76 76 76 75 76 75 75 75 75 74 75 75 75 74 74 74 74 73 73 73 74 73 73 74 72 74
71 74 73 76 76 75 76 76 76 75 75 76 76 76 76 76 76 76 75 75 74 74 74 75 75 75 75 74 74 74 75 74 74 74 73 72 72 73 73 74 74 74 74
72 74 74 76 76 75 76 76 76 75 75 75 76 76 76 76 76 76 75 75 74 74 74 73 75 75 75 74 73 72 73 74 73 73 71 71 70 74 73 73 73 74 74
72 73 75 77 76 75 75 75 76 75 75 75 75 75 75 75 75 75 75 75 75 75 74 73 73 73 73 73 73 73 73 72 72 71 70 69 71 73 74 74 73 74 74
71 73 75 76 75 75 75 75 75 75 75 75 75 75 75 75 75 75 74 73 73 74 74 74 74 74 73 72 71 71 71 73 72 71 71 72 71 74 73 74 74 74 74
72 73 73 76 75 75 75 75 75 75 75 75 75 75 75 75 75 74 74 73 72 72 72 72 73 73 73 73 72 72 73 74 70 69 71 72 73 75 74 73 74 74 74
72 72 73 75 75 75 75 75 75 75 75 75 75 75 75 75 74 74 73 73 73 73 73 72 71 71 71 72 73 72 72 73 68 69 73 73 74 74 73 73 74 73 73
71 71 72 72 73 74 75 75 75 74 75 74 74 75 74 74 75 74 74 74 73 73 73 73 72 71 71 71 70 72 73 73 68 70 71 74 75 74 73 73 73 73 73
70 71 71 71 72 73 73 75 75 74 74 74 75 74 74 73 73 73 75 74 73 72 72 72 72 72 71 71 71 71 73 73 71 72 72 73 75 73 73 73 73 73 73
68 70 71 72 72 72 72 73 74 75 74 74 73 73 73 71 71 72 72 74 73 72 73 73 73 73 72 74 74 72 73 70 72 71 72 74 74 72 72 73 73 73 73
66 68 69 71 71 70 72 72 72 71 71 71 72 71 72 71 71 73 73 73 74 73 73 74 73 73 74 71 72 72 72 71 71 71 71 74 73 72 73 72 73 73 73
65 66 68 69 69 70 71 72 72 72 72 72 71 71 71 73 71 73 74 73 73 73 73 73 74 73 73 71 71 70 71 72 71 71 71 72 71 71 73 73 72 72 72
62 63 67 67 68 70 70 72 72 72 72 71 71 71 72 72 73 72 72 73 72 71 70 70 72 72 73 72 71 72 72 72 71 71 70 72 71 70 73 73 73 72 72
60 62 65 66 67 68 70 71 71 72 72 71 71 71 71 72 71 71 72 73 72 70 70 69 71 72 73 72 72 71 72 71 69 71 70 71 72 71 71 71 72 72 72
59 61 63 65 67 69 71 71 71 71 71 71 70 70 71 72 71 72 71 72 71 71 71 72 71 72 72 71 72 71 71 71 70 70 71 71 73 72 72 72 71 71 72
60 61 64 65 68 69 70 70 69 70 69 69 70 70 72 72 72 72 72 72 71 71 71 72 71 71 70 70 69 71 71 71 71 71 71 71 72 74 73 73 73 71 71
61 61 66 66 68 68 69 67 67 68 68 69 71 71 72 73 72 72 73 73 73 72 72 71 71 70 69 69 68 68 71 72 72 71 72 71 72 73 73 74 73 72 72
61 62 65 67 67 66 68 67 67 67 69 70 72 72 69 68 71 71 73 73 73 72 72 71 70 69 69 70 69 70 71 71 73 74 73 73 73 73 72 74 74 73 73
63 64 65 65 67 66 68 67 67 68 69 70 70 70 71 72 71 71 73 73 72 71 72 71 70 70 69 70 72 71 70 70 72 71 70 73 73 73 72 72 73 72 73
64 63 65 65 66 68 68 68 68 68 68 68 71 71 71 71 71 73 73 73 72 72 71 71 70 70 70 70 68 68 66 70 71 71 71 71 72 73 72 72 73 72 73
61 61 65 65 67 67 67 66 68 68 67 68 70 71 72 71 73 73 73 72 72 72 72 70 70 69 70 70 66 64 63 66 70 71 71 70 71 72 73 72 73 72 72
61 62 66 65 67 66 66 67 69 69 68 69 71 71 72 74 74 72 72 73 72 72 72 71 71 68 68 70 69 65 62 61 65 69 70 70 71 71 71 72 73 73 72
61 62 66 65 67 66 68 69 69 66 66 67 69 71 72 73 73 74 73 72 72 72 72 71 71 71 69 68 70 71 67 66 62 63 67 69 71 70 70 71 71 71 71
60 62 66 66 67 67 69 70 69 66 66 68 69 69 72 73 72 73 73 72 71 71 72 72 72 71 72 70 69 70 69 67 66 63 63 66 68 68 70 71 70 70 70
60 62 67 67 66 67 68 70 71 70 68 69 72 71 73 72 71 73 72 71 70 72 70 71 70 71 70 70 69 67 66 66 66 65 64 64 65 67 68 70 70 69 68

GFSSE_sfc_dewp_339.txt.gz
Dewpoint
69 71 75 75 75 75 75 75 76 76 76 76 76 76 76 75 76 76 75 75 75 75 74 75 75 74 73 73 73 75 74 73 73 74 73 74 74 74 73 73 74 71 73
70 73 76 76 75 75 75 75 76 76 76 76 77 76 76 75 75 75 76 75 75 75 74 74 74 73 74 73 73 75 75 74 73 73 73 73 73 74 73 73 73 72 73
72 73 74 76 75 75 75 75 75 75 75 76 77 76 76 76 76 75 75 74 74 74 74 74 73 74 74 74 74 74 74 74 73 73 73 72 72 73 73 73 73 73 73
73 73 74 76 76 75 75 76 76 75 75 76 76 76 76 76 75 75 75 74 74 74 75 74 74 74 73 72 73 74 74 74 73 73 71 72 70 73 73 73 73 73 73
73 74 74 76 76 76 76 75 75 75 75 75 75 75 75 75 75 75 75 74 75 74 73 74 74 73 73 72 72 72 73 72 73 71 70 71 71 72 73 73 73 73 73
72 74 75 75 75 75 75 75 75 75 75 75 75 75 75 75 75 74 73 74 75 74 74 73 72 72 71 71 71 71 72 71 72 70 69 73 72 73 74 73 73 73 73
72 73 72 76 75 75 75 75 75 75 75 75 75 75 75 75 74 75 73 73 72 72 73 73 73 73 73 71 71 71 72 73 70 71 70 71 73 75 73 73 74 74 73
72 73 72 75 75 74 75 75 75 75 75 75 75 75 75 74 74 74 73 73 73 73 73 72 72 72 72 72 71 71 73 73 69 71 72 72 74 74 73 73 74 73 74
72 72 72 73 73 74 74 75 75 75 75 75 75 75 75 74 74 73 74 73 73 72 73 73 72 71 71 71 71 71 73 72 67 71 73 73 75 74 73 73 73 73 74
71 72 72 71 71 72 73 75 74 75 74 74 74 74 74 74 74 73 74 73 72 72 71 72 71 71 71 71 71 71 72 73 71 72 73 73 75 73 73 73 73 73 73
70 71 71 71 72 73 73 73 74 75 74 75 74 74 73 71 71 72 73 73 73 72 72 72 72 72 72 73 73 72 73 71 72 72 73 74 74 73 73 73 73 73 73
68 70 71 72 72 72 72 72 72 72 72 71 72 71 71 71 71 72 72 73 73 73 73 73 73 73 73 71 72 72 72 71 71 71 72 74 73 73 73 73 73 73 73
67 68 69 71 71 70 72 72 71 71 71 71 71 71 70 73 71 72 73 73 73 73 73 73 73 73 73 71 70 71 70 72 70 72 71 73 72 71 73 72 73 73 73
65 66 68 70 70 70 71 72 72 71 71 71 71 71 71 72 71 71 72 72 73 72 71 70 70 71 72 72 70 71 70 72 71 71 70 72 71 70 72 72 73 73 73
64 64 67 68 69 69 70 71 71 71 71 71 71 71 71 72 71 71 72 72 72 72 70 69 70 71 72 72 71 71 72 71 71 71 68 71 71 71 71 73 73 72 72
62 63 65 67 68 68 70 70 70 71 71 71 71 70 71 72 71 71 71 72 71 71 70 70 70 70 71 71 71 71 71 71 70 70 70 68 72 72 72 72 73 72 72
60 62 63 65 67 68 70 70 70 70 70 71 71 70 70 72 71 71 71 71 71 71 70 71 71 71 71 71 70 70 71 70 70 70 71 70 71 73 72 72 72 72 72
60 61 62 64 66 68 69 70 68 68 69 69 70 70 72 72 72 72 71 72 72 71 70 70 70 69 69 68 68 69 71 71 71 71 71 71 71 72 73 73 73 72 72
61 62 65 64 67 68 69 68 67 67 68 69 70 71 71 72 73 72 73 73 72 71 71 70 69 69 68 68 69 68 70 70 72 72 71 71 71 72 72 73 74 73 72
61 62 65 67 67 68 68 67 67 67 68 70 70 71 71 71 70 70 72 73 72 71 71 70 69 69 68 69 71 70 70 69 71 71 71 71 72 72 72 71 72 73 73
62 63 65 66 67 66 67 66 66 66 68 68 70 70 70 71 69 72 72 72 71 71 70 70 70 69 69 69 68 67 66 68 70 71 69 70 72 71 71 72 72 71 72
63 63 65 65 66 66 67 67 67 68 68 68 69 70 71 71 72 72 72 71 71 71 71 70 70 69 69 70 66 63 63 66 68 70 70 70 70 72 72 72 72 71 71
62 63 64 65 66 67 67 67 68 69 68 69 70 69 71 72 72 73 72 71 71 71 70 70 69 68 68 69 68 63 62 61 64 68 68 69 70 70 71 72 72 72 71
62 62 64 65 66 66 66 66 67 66 66 66 69 70 71 73 73 73 72 73 71 71 71 71 71 70 68 67 69 69 66 65 62 62 67 68 70 70 70 71 71 71 71
61 61 65 65 66 66 66 67 67 66 66 67 68 69 71 72 73 73 73 71 71 71 71 71 71 70 70 69 69 69 68 66 64 63 63 65 68 68 69 70 70 70 70
61 62 65 65 66 66 67 69 68 68 66 67 70 68 70 72 71 73 72 72 70 70 71 71 71 70 70 69 69 67 67 66 65 64 63 63 65 66 68 70 70 69 69

GFSSE_sfc_dewp_342.txt.gz
Dewpoint
68 70 75 75 75 75 75 74 75 76 77 77 76 75 75 75 75 75 75 75 75 74 75 75 74 73 73 74 73 73 73 74 74 74 74 74 74 74 74 74 73 70 73
70 71 75 75 74 75 75 75 75 76 76 76 76 76 76 76 75 75 75 75 75 74 74 74 74 74 73 74 74 74 74 74 74 73 73 74 74 74 73 73 73 71 73
71 73 73 76 75 75 75 75 75 75 75 75 75 76 76 75 75 75 75 75 75 74 74 74 73 74 73 73 74 74 75 73 74 74 74 73 72 73 73 73 73 73 73
73 73 74 75 76 75 75 75 75 75 76 75 76 76 76 75 75 74 75 74 75 74 74 74 74 74 73 74 74 74 74 73 73 74 73 72 71 73 73 73 73 73 73
73 73 74 76 76 75 75 75 75 75 75 75 75 76 76 75 75 75 75 74 74 74 74 74 74 73 72 72 73 74 73 73 73 71 72 73 73 73 73 73 73 73 73
73 73 74 75 75 75 75 75 75 75 75 75 75 75 75 75 74 75 75 75 74 73 72 72 72 72 72 72 72 71 71 73 71 70 72 74 73 73 73 73 73 73 73
73 73 73 76 75 75 75 75 75 75 75 75 75 75 75 75 75 73 72 72 72 73 73 72 72 72 71 71 71 71 73 73 70 70 71 73 73 75 73 73 73 73 73
73 72 73 75 75 75 75 74 75 75 75 75 75 75 74 74 74 74 73 72 73 72 72 72 72 72 71 71 72 72 73 73 69 71 72 73 74 74 73 73 73 73 73
72 72 72 73 73 74 74 75 74 74 75 75 75 75 74 73 73 73 73 73 73 72 73 72 71 71 71 71 72 72 73 73 70 72 73 73 74 74 73 73 73 73 74
72 72 72 72 72 72 72 74 74 74 74 74 74 74 73 73 74 73 74 73 72 72 72 72 72 72 72 71 71 70 73 72 71 72 73 74 73 73 73 73 73 74 73
71 71 72 71 72 72 73 73 73 74 73 73 73 73 73 73 72 73 73 73 73 73 72 72 72 72 72 72 71 71 73 71 72 73 73 74 74 72 72 73 73 73 73
69 71 71 71 72 72 73 73 73 73 73 73 73 72 72 72 72 72 73 73 74 74 73 73 73 72 74 72 73 73 72 72 72 72 73 74 73 71 72 73 73 73 73
68 70 70 71 72 71 72 72 72 71 72 72 72 72 71 73 72 72 73 73 73 73 73 74 72 72 73 72 71 72 71 71 70 72 72 73 71 71 72 73 73 73 73
67 68 69 71 71 71 71 72 72 71 71 71 71 71 71 71 72 72 72 73 73 73 72 72 71 71 73 73 71 71 70 72 71 72 71 71 71 71 71 73 73 73 73
65 66 67 70 70 71 70 71 72 71 71 71 71 71 71 72 72 72 72 73 73 73 71 70 70 71 71 72 72 71 72 72 71 72 70 70 68 71 72 72 73 73 73
64 65 66 68 69 70 70 71 71 71 71 71 71 71 72 72 72 71 71 73 72 73 71 70 71 71 72 72 72 72 71 72 71 71 70 69 71 71 72 73 72 73 72
62 63 64 67 68 69 69 70 71 71 70 72 71 71 72 72 72 72 72 72 71 72 71 72 72 72 71 72 71 71 72 71 70 70 70 71 69 72 73 72 72 72 73
61 62 63 65 66 68 69 70 71 71 71 71 71 71 72 72 73 73 72 72 72 72 71 71 71 71 70 70 69 70 71 72 71 71 71 72 71 71 73 73 73 72 72
61 62 63 65 66 68 69 70 70 69 69 70 70 72 72 73 73 73 73 73 73 72 72 71 71 70 70 69 69 70 71 72 72 72 71 72 72 72 72 73 73 73 72
61 62 63 64 66 68 69 69 69 68 68 70 71 72 72 71 71 72 72 74 73 72 72 71 70 71 70 70 71 71 71 71 72 73 73 72 73 73 73 73 74 74 73
61 62 64 66 67 68 68 68 67 66 68 70 71 72 72 72 72 71 73 73 72 72 72 71 70 70 70 71 70 69 69 70 71 72 71 71 71 73 73 73 74 73 73
61 62 64 66 68 68 68 68 68 68 69 70 70 71 72 72 73 73 73 72 72 72 72 71 71 71 71 71 68 67 66 68 70 71 72 71 71 73 72 72 73 73 73
61 62 64 66 67 68 68 68 69 70 70 70 70 70 71 72 72 74 73 73 72 73 72 72 71 70 70 71 69 66 66 65 67 70 70 71 71 72 73 72 72 73 73
61 63 64 66 67 68 68 67 68 67 68 69 69 71 71 73 74 74 73 73 72 72 72 73 72 71 71 70 70 69 67 67 66 66 69 70 70 70 71 72 72 73 73
62 63 65 66 67 68 67 68 67 67 68 69 70 71 72 73 74 74 74 73 72 72 73 73 72 72 72 71 71 71 70 68 67 66 67 68 70 70 71 71 72 73 72
62 63 65 66 67 67 67 67 67 67 68 68 70 69 70 72 73 74 74 73 72 72 73 73 73 73 72 71 70 69 69 68 66 67 66 67 68 70 70 72 72 71 72

GFSSE_sfc_dewp_345.txt.gz
Dewpoint
70 71 74 75 75 74 75 76 77 77 76 76 76 75 75 75 75 74 75 74 75 75 75 73 74 74 73 73 73 74 74 74 74 74 74 74 74 74 74 73 73 69 73
70 71 74 75 75 75 75 75 76 77 76 76 76 75 75 75 75 75 75 74 75 75 74 74 74 73 75 74 73 73 74 74 74 74 74 74 74 74 73 73 73 71 73
71 71 71 74 75 75 75 75 76 76 75 75 75 76 75 75 75 75 75 75 75 74 74 74 74 73 74 75 75 74 74 74 74 73 73 70 71 73 73 73 73 73 73
71 73 71 76 75 74 75 75 76 75 75 76 76 76 76 75 75 74 74 75 74 74 74 74 74 74 74 74 74 74 74 74 74 74 70 68 68 73 74 74 74 73 73
72 71 73 75 76 74 75 75 75 75 75 76 76 75 75 75 75 74 74 74 75 74 74 74 74 73 73 73 74 74 73 74 74 71 71 71 69 72 73 73 73 73 73
71 71 74 75 75 75 75 75 75 75 75 75 75 75 75 75 75 75 74 74 73 73 73 73 73 73 73 72 72 72 73 73 71 71 71 72 70 73 74 73 73 73 73
72 70 71 75 75 75 75 75 75 75 75 75 75 75 75 74 73 72 73 73 74 73 72 72 72 71 71 72 71 71 73 73 69 72 70 71 71 74 73 73 73 74 73
70 72 72 74 75 75 75 75 75 75 75 75 74 75 74 74 75 72 72 72 72 72 73 72 72 71 71 72 72 72 73 71 67 69 71 71 73 74 73 73 74 74 74
71 71 72 70 73 75 75 75 75 75 75 74 75 75 74 73 73 73 72 72 72 73 72 71 71 71 71 71 72 72 73 72 69 70 69 71 74 74 74 74 74 74 73
69 70 73 71 70 71 71 74 75 74 74 74 74 73 73 73 73 73 74 73 72 72 72 72 71 71 72 71 72 72 73 72 70 72 73 70 74 73 73 73 74 73 74
69 70 71 72 71 73 73 73 74 75 73 73 73 73 73 72 73 71 73 73 73 72 71 72 71 71 71 71 71 72 73 70 72 73 74 73 73 73 72 73 73 73 74
67 70 71 72 69 71 71 75 75 74 73 74 74 74 73 72 72 71 73 74 74 74 74 73 73 73 73 72 69 72 73 73 72 72 73 73 71 71 72 73 73 74 73
67 68 70 71 72 71 72 73 72 73 73 72 74 73 71 71 72 72 73 74 74 73 73 73 73 74 73 72 71 72 71 71 71 72 71 73 70 70 72 73 73 73 73
67 68 69 69 71 71 71 71 71 70 70 69 70 72 72 71 73 74 75 75 73 73 73 73 73 69 70 73 72 71 69 68 75 73 73 72 71 71 71 73 73 73 73
65 66 66 68 71 72 73 71 72 71 68 68 69 70 70 71 75 74 76 73 74 74 73 72 71 73 71 71 73 71 70 69 71 70 70 70 70 70 71 72 73 73 73
66 65 65 66 69 71 71 72 72 71 70 70 70 71 73 72 73 73 74 73 73 74 73 72 71 71 71 71 73 73 72 72 72 71 69 69 70 69 70 71 72 73 73
66 65 65 66 66 70 71 72 71 71 69 71 70 73 74 74 74 74 74 74 74 75 74 72 71 73 72 74 72 72 72 72 71 72 71 70 69 71 71 72 73 73 73
64 65 66 63 65 67 69 71 71 71 72 71 72 72 73 74 75 74 75 75 75 75 74 72 71 71 73 71 70 72 72 72 71 71 71 71 70 68 73 73 72 72 73
64 65 65 66 66 68 71 70 71 71 71 70 71 71 74 74 75 75 75 74 76 74 73 73 72 71 71 69 68 70 70 73 72 71 73 72 72 70 70 73 72 72 72
64 65 66 65 68 70 70 71 70 70 70 70 70 72 74 74 73 74 73 77 75 73 72 72 72 72 70 71 69 70 72 72 73 72 72 71 72 72 72 73 75 74 73
63 64 66 66 69 69 68 68 68 68 70 69 70 74 74 74 74 74 74 75 74 73 73 73 71 72 70 72 69 70 71 72 72 72 73 71 71 71 73 73 72 72 71
62 64 66 67 69 69 69 69 69 70 69 69 71 73 74 73 74 75 76 75 74 73 74 73 72 70 70 71 70 69 67 69 71 72 72 72 69 72 73 72 71 73 72
62 64 66 68 70 71 71 70 70 71 71 70 71 71 72 74 74 76 76 75 75 75 72 74 73 72 69 71 71 67 66 64 68 71 71 70 71 71 72 72 72 73 73
62 64 66 68 70 70 72 70 71 68 66 68 71 72 72 74 74 75 77 75 75 74 75 74 73 72 73 70 70 70 70 70 66 64 70 70 70 69 70 71 71 72 73
61 63 65 68 70 70 72 72 70 70 68 70 72 73 75 75 75 75 77 76 75 73 75 75 75 74 72 71 70 71 72 70 70 66 68 70 70 71 70 71 70 71 72
62 63 64 68 70 71 72 72 72 71 70 69 71 70 71 72 73 76 76 76 76 74 75 74 75 75 74 74 72 70 70 70 69 68 65 70 70 71 72 72 72 75 73